Tracking 18980 objects as of 21-Feb-2018
HD Live streaming from Space Station
objects crossing your sky now

FENGYUN 1C DEB

Track FENGYUN 1C DEB now!
10-day predictions


NORAD ID: 33686
Int'l Code: 1999-025DFX
Perigee: 638.5 km
Apogee: 727.9 km
Inclination: 98.9 °
Period: 98.3 minutes
Semi major axis: 7054 km
RCS: 0.0123 m2 (small)
Launch date: May 10, 1999
Source: People's Republic of China (PRC)
Launch site: Taiyaun Space Center, China (TSC)

Note: This is SATELLITE DEBRIS
aabbcc
Your satellite tracking list
Your tracking list is empty




NASA's NSSDC Master Catalog

Two Line Element Set (TLE):
1 33686U 99025DFX 18051.45780426  .00001818  00000-0  33750-3 0  9991
2 33686  98.8806 288.2686 0063374 135.7685 224.8606 14.65329276549040
Source of the keplerian elements: AFSPC